Weather in Ural

Russia / Chelyabinsk Oblast     52°36′56″N   58°59′30″E
temp.,
°C
wind,
m/s
gust,
m/s
humid.,
%
clouds,
%
prec.,
mm/h
press.,
hPa
HPBL,
m
23 april, fri
fri2323:00+7sse2456100 0.0 103389
02:00+6s2373100 0.4 1033106
05:00+5sse3876100 0.4 1033315
08:00+7se3964100 0.0 1032337
11:00+12sse6944100 0.0 10301108
14:00+13s7942100 0.0 10292069
17:00+9s3568100 0.7 10301067
20:00+8se2680100 0.8 1028608
24 april, sat
sat2423:00+8ese61276100 0.9 1026689
02:00+7ese61171100 0.1 1023442
05:00+7se61170100 0.1 1021592
08:00+5se71185100 1.3 1020853
11:00+5se71185100 2.4 1018931
14:00+3se61296100 1.7 1017616
17:00+5ese51082100 3.0 1015540
20:00+6ese3585100 0.1 1014189
25 april, sun
sun2523:00+6sw4995100 0.4 1014450
02:00+6w61190100 0.1 1015685
05:00+6w588699 0.1 1016394
08:00+6ssw3784100 0.0 1017427
11:00+10sw7107496 0.1 10161030
14:00+10wsw8147998 0.7 10161442
17:00+13w9134232 0.9 10162389
20:00+10wsw59542 0.0 1018235
26 april, mon
mon2623:00+6wsw397038 0.0 1020204
02:00+5sw48825 0.0 1021161
05:00+4wsw3683100 0.0 1022109
08:00+6w3563100 0.0 1023254
11:00+8wsw3544100 0.0 1024888
14:00+11sw3540100 0.0 10221325
17:00+9ssw3368100 0.4 1021769
20:00+7ene3592100 3.9 1019328
27 april, tue
tue2723:00+7ene51095100 7.2 1016455
02:00+9se61480100 0.1 1011465
05:00+10sse61471100 0.1 1007347
08:00+11s51468100 0.9 1005401
11:00+13ssw51061100 0.9 1004525
14:00+14sw3667100 0.1 1003456
17:00+14wsw5876100 0.2 1004791
20:00+11w71076100 0.0 1006719